Bangkok (Suvarnabhumi), Thailand

12:50 PM +07 on December 10, 2019 (GMT +0700)
Bangkok (Suvarnabhumi)

Weather History for VTBS - October, 2019

Change the Weather History Date:

Saturday, October 12, 2019

  Actual Average (WUND) Record (WUND)
Temperature  
Mean Temperature 84 °F -  
Max Temperature 92 °F 90 °F - (-1)
Min Temperature 75 °F 74 °F - (-1)
Cooling Degree Days 18    
Growing Degree Days 34 (Base 50)    
Moisture  
Dew Point 77 °F    
Average Humidity 78    
Maximum Humidity 97    
Minimum Humidity 59    
Precipitation  
Precipitation 0.20 in 0.20 in - ()
Sea Level Pressure  
Sea Level Pressure 29.80 in    
Wind  
Wind Speed 5 mph ()    
Max Wind Speed 12 mph    
Max Gust Speed -    
Visibility 5.5 miles    
Events Rain , Thunderstorm    
Averages and records for this station are not official NWS values.
T = Trace of Precipitation, MM = Missing Value Source: Averaged Metar Reports

Daily Weather History Graph

Daily Weather History Graph

Search for Another Location

Airport or City:

Astronomy

Oct. 12, 2019 Rise Set
Actual Time 6:06 AM +07 5:59 PM +07
Civil Twilight 5:44 AM +07 6:20 PM +07
Nautical Twilight 5:20 AM +07 6:45 PM +07
Astronomical Twilight 4:55 AM +07 7:09 PM +07
Moon 5:15 PM +07 (10/12) 4:44 AM +07 (10/12)
Length of Visible Light 12h 35m
Length of Day
11h 52m
Waxing Gibbous, 97% of the Moon is Illuminated
Oct 12
Waxing Gibbous
Oct 14
Full
Oct 21
Last Quarter
Oct 28
New
Nov 4
First Quarter

Hourly Weather History & Observations

Time (+07) Temp. Heat Index Dew Point Humidity Pressure Visibility Wind Dir Wind Speed Gust Speed Precip Events Conditions
12:00 AM 82.4 °F 90.9 °F 77.0 °F 84% 29.83 in 5.6 mi SSW 8.1 mph - N/A   Mostly Cloudy
12:30 AM 84.2 °F 94.1 °F 77.0 °F 79% 29.83 in 5.6 mi SSW 6.9 mph - N/A   Mostly Cloudy
1:00 AM 83 °F - 79 °F 84% 29.81 in 5 mi Calm Calm - -   Mist
1:00 AM 84.2 °F 94.1 °F 77.0 °F 79% 29.80 in 5.6 mi SSW 5.8 mph - N/A   Mostly Cloudy
1:30 AM 84.2 °F 96.1 °F 78.8 °F 84% 29.80 in 5.6 mi SSW 5.8 mph - N/A   Scattered Clouds
2:00 AM 82.4 °F 92.4 °F 78.8 °F 89% 29.80 in 5.6 mi SSW 5.8 mph - N/A   Scattered Clouds
2:30 AM 82.4 °F 92.4 °F 78.8 °F 89% 29.77 in 5.6 mi WNW 3.5 mph - N/A   Partly Cloudy
3:00 AM 82.4 °F 92.4 °F 78.8 °F 89% 29.80 in 5.6 mi Variable 2.3 mph - N/A   Scattered Clouds
3:30 AM 82.4 °F 90.9 °F 77.0 °F 84% 29.80 in 5.6 mi Variable 2.3 mph - N/A   Scattered Clouds
4:00 AM 80 °F - 78 °F 90% 29.78 in 5 mi Calm Calm - - Thunderstorm Thunderstorm
4:30 AM 80.6 °F 86.2 °F 75.2 °F 84% 29.80 in 5.6 mi WSW 5.8 mph - N/A   Scattered Clouds
5:00 AM 80.6 °F 86.2 °F 75.2 °F 84% 29.77 in 5.6 mi SSW 5.8 mph - N/A Rain Light Rain
5:30 AM 78.8 °F - 75.2 °F 89% 29.80 in 5.6 mi Variable 2.3 mph - N/A   Scattered Clouds
6:00 AM 80.6 °F 86.2 °F 75.2 °F 84% 29.80 in 5.6 mi Variable 2.3 mph - N/A Rain Light Rain
6:30 AM 80.6 °F 86.2 °F 75.2 °F 84% 29.80 in 5.0 mi ESE 5.8 mph - N/A   Mostly Cloudy
7:00 AM 78 °F - 77 °F 97% 29.83 in 3 mi Calm Calm - - Rain , Thunderstorm Thunderstorms and Rain
7:00 AM 82.4 °F 90.9 °F 77.0 °F 84% 29.83 in 5.0 mi ESE 8.1 mph - N/A   Partly Cloudy
8:00 AM 84.2 °F 94.1 °F 77.0 °F 79% 29.86 in 5.6 mi SSE 4.6 mph - N/A   Partly Cloudy
8:30 AM 84.2 °F 92.3 °F 75.2 °F 74% 29.86 in 6.2 mi SSE 6.9 mph - N/A   Partly Cloudy
9:30 AM 86.0 °F 96.9 °F 77.0 °F 74% 29.86 in 6.2 mi South 5.8 mph - N/A   Partly Cloudy
10:00 AM 87.8 °F 99.7 °F 77.0 °F 70% 29.86 in 6.2 mi SSW 3.5 mph - N/A   Partly Cloudy
10:30 AM 87.8 °F 99.7 °F 77.0 °F 70% 29.86 in 6.2 mi Variable 3.5 mph - N/A   Partly Cloudy
11:00 AM 87.8 °F 97.6 °F 75.2 °F 66% 29.86 in 6.2 mi WSW 5.8 mph - N/A   Partly Cloudy
11:30 AM 91.4 °F 105.1 °F 77.0 °F 63% 29.83 in 6.2 mi South 6.9 mph - N/A   Partly Cloudy
12:00 PM 89.6 °F 99.8 °F 75.2 °F 62% 29.83 in 6.2 mi South 6.9 mph - N/A   Partly Cloudy
12:30 PM 89.6 °F 99.8 °F 75.2 °F 62% 29.80 in 6.2 mi South 6.9 mph - N/A   Partly Cloudy
1:00 PM 90 °F - 80 °F 65% 29.79 in 4 mi West 10.4 mph - -   Mist
1:30 PM 89.6 °F 98.2 °F 73.4 °F 59% 29.77 in 6.2 mi South 10.4 mph - N/A   Partly Cloudy
2:00 PM 89.6 °F 98.2 °F 73.4 °F 59% 29.77 in 6.2 mi South 10.4 mph - N/A   Partly Cloudy
2:30 PM 89.6 °F 99.8 °F 75.2 °F 62% 29.77 in 6.2 mi SW 5.8 mph - N/A   Partly Cloudy
4:00 PM 89 °F - 78 °F 62% 29.73 in 4 mi Calm Calm - -   Mist
4:00 PM 89.6 °F 98.2 °F 73.4 °F 59% 29.74 in 6.2 mi SSW 5.8 mph - N/A   Partly Cloudy
4:30 PM 87.8 °F 95.6 °F 73.4 °F 62% 29.71 in 6.2 mi SSW 4.6 mph - N/A   Partly Cloudy
5:00 PM 87.8 °F 97.6 °F 75.2 °F 66% 29.71 in 6.2 mi SW 5.8 mph - N/A   Partly Cloudy
5:30 PM 87.8 °F 97.6 °F 75.2 °F 66% 29.74 in 6.2 mi SSW 10.4 mph - N/A   Partly Cloudy
6:30 PM 86.0 °F 96.9 °F 77.0 °F 74% 29.77 in 5.6 mi SSE 8.1 mph - N/A Rain , Thunderstorm Light Thunderstorms and Rain
7:00 PM 85 °F - 79 °F 76% 29.77 in 2 mi Calm Calm - -   Mist
7:00 PM 80.6 °F 88.1 °F 78.8 °F 94% 29.80 in 3.1 mi East 11.5 mph - N/A Rain , Thunderstorm Thunderstorms and Rain
7:30 PM 82.4 °F 92.4 °F 78.8 °F 89% 29.80 in 5.6 mi East 8.1 mph - N/A Rain Light Rain
8:00 PM 82.4 °F 92.4 °F 78.8 °F 89% 29.80 in 6.2 mi East 5.8 mph - N/A   Mostly Cloudy
8:30 PM 82.4 °F 90.9 °F 77.0 °F 84% 29.80 in 6.2 mi Variable 2.3 mph - N/A   Mostly Cloudy
9:00 PM 82.4 °F 90.9 °F 77.0 °F 84% 29.83 in 6.2 mi East 4.6 mph - N/A   Mostly Cloudy
9:30 PM 82.4 °F 90.9 °F 77.0 °F 84% 29.83 in 6.2 mi East 5.8 mph - N/A   Mostly Cloudy
10:00 PM 82 °F - 78 °F 86% 29.83 in 2 mi Calm Calm - -   Mist
10:00 PM 80.6 °F 86.2 °F 75.2 °F 84% 29.83 in 6.2 mi East 4.6 mph - N/A   Partly Cloudy
10:30 PM 82.4 °F 89.5 °F 75.2 °F 79% 29.83 in 6.2 mi ESE 6.9 mph - N/A   Partly Cloudy
11:00 PM 82.4 °F 90.9 °F 77.0 °F 84% 29.83 in 6.2 mi ESE 5.8 mph - N/A   Partly Cloudy
11:30 PM 82.4 °F 90.9 °F 77.0 °F 84% 29.86 in 6.2 mi ESE 5.8 mph - N/A   Partly Cloudy